Location: Hagen
(51.3456°N, 7.4557°E)
Time: 21:02:44
(UTC+01:00)

Tiangong 2 - Visible Passes

Search period start: 22 January 2018 00:00
Search period end: 01 February 2018 00:00
Orbit: 384 x 390 km, 42.8° (Epoch: 22 January)

Date Brightness Start Highest point End Pass type
(mag) Time Alt. Az. Time Alt. Az. Time Alt. Az.
22 Jan 3.7 05:56:28 14° S 05:56:37 14° SSE 05:58:25 10° SE visible
22 Jan 3.5 07:30:28 10° SW 07:32:43 18° S 07:34:57 10° SE visible
23 Jan 3.4 06:32:48 14° SSW 06:34:12 18° S 06:36:27 10° SE visible
24 Jan 3.9 05:36:49 14° SSE 05:36:49 14° SSE 05:37:48 10° SE visible
24 Jan 3.5 07:09:43 10° SW 07:11:48 16° S 07:13:52 10° SSE visible
25 Jan 3.2 06:13:04 17° S 06:13:17 18° S 06:15:30 10° SE visible
26 Jan 3.6 06:49:18 10° SW 06:50:50 13° SSW 06:52:28 10° SSE visible
27 Jan 3.7 05:53:15 14° SSE 05:53:15 14° SSE 05:54:21 10° SSE visible
28 Jan 3.7 06:29:30 10° SSW 06:29:47 10° SSW 06:30:11 10° SSW visible
